Fort Myers, FL

6:28 AM EDT on May 25, 2017 (GMT -0400)
Page

Weather History for KFMY - June, 2013

Change the Weather History Date:

Tuesday, June 18, 2013

  Actual Average Record
Temperature  
Mean Temperature 83 °F 83 °F  
Max Temperature 91 °F 92 °F 100 °F (1981)
Min Temperature 75 °F 74 °F 67 °F (1933)
Degree Days  
Heating Degree Days 0 0  
Month to date heating degree days 0 0  
Since 1 June heating degree days 0 0  
Since 1 July heating degree days 201 287  
Cooling Degree Days 18 18  
Month to date cooling degree days 296 312  
Year to date cooling degree days 1434 1378  
Since 1 June cooling degree days 296 312  
Growing Degree Days 33 (Base 50)    
Moisture  
Dew Point 74 °F    
Average Humidity 77    
Maximum Humidity 94    
Minimum Humidity 56    
Precipitation  
Precipitation 0.04 in 0.38 in 5.70 in (1953)
Month to date precipitation 5.27 5.60  
Year to date precipitation 15.43 17.40  
Sea Level Pressure  
Sea Level Pressure 30.03 in    
Wind  
Wind Speed 5 mph (SSW)    
Max Wind Speed 13 mph    
Max Gust Speed 23 mph    
Visibility 9 miles    
Events Rain    
T = Trace of Precipitation, MM = Missing Value Source: NWS Daily Summary

Daily Weather History Graph

Daily Weather History Graph

Search for Another Location

Airport or City:

Trip Planner

Search our weather history database for the weather conditions in past years. The results will help you decide how hot, cold, wet, or windy it might be!

Date:

Astronomy

Jun. 18, 2013 Rise Set
Actual Time 6:34 AM EDT 8:22 PM EDT
Civil Twilight 6:08 AM EDT 8:49 PM EDT
Nautical Twilight 5:36 AM EDT 9:20 PM EDT
Astronomical Twilight 5:03 AM EDT 9:54 PM EDT
Moon 3:26 PM EDT (6/18) 2:18 AM EDT (6/18)
Length of Visible Light 14h 41m
Length of Day
13h 48m
Waxing Gibbous, 70% of the Moon is Illuminated
Jun 18
Waxing Gibbous
Jun 23
Full
Jun 30
Last Quarter
Jul 8
New
Jul 15
First Quarter

Hourly Weather History & Observations

Time (EDT) Temp. Heat Index Dew Point Humidity Pressure Visibility Wind Dir Wind Speed Gust Speed Precip Events Conditions
12:04 AM 75.2 °F - 71.6 °F 89% 30.06 in 1.5 mi Variable 4.6 mph - 0.26 in Rain Heavy Rain
12:10 AM 75.2 °F - 73.4 °F 94% 30.06 in 3.0 mi Calm Calm - 0.30 in Rain Rain
12:53 AM 75.9 °F - 73.9 °F 94% 30.07 in 10.0 mi Calm Calm - 0.31 in   Scattered Clouds
1:53 AM 77.0 °F - 75.0 °F 94% 30.06 in 10.0 mi Calm Calm - N/A   Mostly Cloudy
2:53 AM 77.0 °F - 75.0 °F 94% 30.04 in 10.0 mi Calm Calm - N/A   Clear
3:53 AM 75.9 °F - 73.9 °F 94% 30.03 in 10.0 mi Calm Calm - N/A   Clear
4:53 AM 75.9 °F - 73.9 °F 94% 30.02 in 10.0 mi SE 4.6 mph - N/A   Clear
5:53 AM 75.0 °F - 73.9 °F 96% 30.01 in 10.0 mi SE 3.5 mph - N/A   Clear
6:53 AM 75.9 °F - 73.9 °F 94% 30.04 in 9.0 mi Calm Calm - N/A   Clear
7:53 AM 78.1 °F - 75.9 °F 93% 30.05 in 10.0 mi ESE 3.5 mph - N/A   Clear
8:53 AM 82.0 °F 88.6 °F 75.0 °F 79% 30.06 in 10.0 mi SSE 6.9 mph - N/A   Clear
9:53 AM 84.9 °F 92.1 °F 73.9 °F 69% 30.06 in 10.0 mi South 3.5 mph - N/A   Clear
10:53 AM 87.1 °F 94.5 °F 73.0 °F 63% 30.06 in 10.0 mi SE 5.8 mph - N/A   Clear
11:53 AM 88.0 °F 94.7 °F 72.0 °F 59% 30.06 in 10.0 mi SSW 3.5 mph - N/A   Mostly Cloudy
12:53 PM 89.1 °F 96.0 °F 72.0 °F 57% 30.05 in 10.0 mi Calm Calm - N/A   Mostly Cloudy
1:53 PM 90.0 °F 96.9 °F 72.0 °F 55% 30.04 in 10.0 mi SW 4.6 mph - N/A   Overcast
2:53 PM 91.0 °F 101.6 °F 75.0 °F 59% 30.02 in 10.0 mi WSW 8.1 mph - N/A   Mostly Cloudy
3:53 PM 90.0 °F 97.9 °F 73.0 °F 57% 30.00 in 10.0 mi WNW 10.4 mph - N/A   Mostly Cloudy
4:53 PM 89.1 °F 97.0 °F 73.0 °F 59% 29.99 in 10.0 mi West 10.4 mph - N/A   Partly Cloudy
5:53 PM 89.1 °F 96.0 °F 72.0 °F 57% 29.98 in 10.0 mi SW 8.1 mph - N/A   Clear
6:53 PM 88.0 °F 97.5 °F 75.0 °F 65% 29.99 in 10.0 mi SW 4.6 mph - N/A   Clear
7:53 PM 84.9 °F 93.3 °F 75.0 °F 72% 30.00 in 10.0 mi SSW 8.1 mph - N/A   Clear
8:53 PM 84.0 °F 91.9 °F 75.0 °F 74% 30.01 in 10.0 mi WSW 8.1 mph - N/A   Partly Cloudy
9:53 PM 82.9 °F 90.8 °F 75.9 °F 79% 30.03 in 10.0 mi WSW 6.9 mph - N/A   Partly Cloudy
10:53 PM 82.9 °F 90.8 °F 75.9 °F 79% 30.02 in 10.0 mi SW 3.5 mph - N/A   Partly Cloudy
11:53 PM 82.0 °F 89.4 °F 75.9 °F 82% 30.03 in 10.0 mi WSW 3.5 mph - N/A   Clear